DECAYED

CZ-6A DEB, 61285 (Decayed)

Orbit data source: Space-Track

CZ-6A DEB, 61285 was space debris in LEO originally from a launch on Tue, 06 Aug 2024 UTC launched from the Taiyaun Space Center, China (TSC). Debris objects in space refer to the collection of defunct objects orbiting the Earth. Examples of debris include non-operational satellites, rocket bodies, and fragments generated from explosions, collisions, or faulty payload assembly.

Not visible in the next 10 days
Identifier
61285, 2024-140SW
Orbit
Decayed
Country
Flag of CNCN / PRC
Related business
Manufacturer
SAST
Mission
Decayed spacecraft
Bus & Motor
Unknown
Mass
Unknown
Launch date (UTC)
2024-08-06 (2 years ago)
Launch vehicle
Unknown
Launch site
Taiyaun Space Center, China (TSC)
Object type
Payload
Rocket body
Debris
Shape & HBR
Unknown shape, 1.1 m
Radar Cross Section
Small (<0.1 m²)

Expand to show TLE details & history
Last TLE update: 1 year ago

TLE from 1 year ago
0 CZ-6A DEB
1 61285U 24140SW  25025.01579072  .25551405 -13134-5  12788-1 0  9990
2 61285  89.2486 336.2179 0027188 134.4852 225.8677 16.19861436 22595
Epoch: 2025-01-25T00:22Z
TLE epoch observation values (Epoch: 2025-01-25T00:22:44.318Z)
Latitude
-0.00001°
Longitude
-154.03743°
Altitude
235.782 km
Speed
7.758 km/s
True Right ascension
22h 24m 52s
True Declination
0° 00' 00"
Sunlit
Object was in daylight at epoch
Visualization orbit readout
Latitude
Unknown
Longitude
Unknown
Altitude
Unknown
Speed
Unknown
Apparent Right ascension
Unknown
Apparent Declination
Unknown
Sunlit
N/A
Visualization observer readout
Local Sidereal Time
19:53:00
Azimuth
Unknown
Elevation
Unknown
Doppler factor
Unknown
Orbital elements
Apogee altitude
234.527 km
Perigee altitude
198.668 km
Semi-major axis
6,594.735 km
Eccentricity
0.00272
Inclination
89.2486°
RAAN
336.2179°
Arg. of periapsis
134.4852°
True anomaly
225.64462°
Mean anomaly
225.8677°
Eccentric anomaly
225.75611°
Mean motion
4.05273 °/min
Orbital period
88.83 mins
BSTAR
0.012788
Loading maneuver chart data...
Computing Atmospheric mass density...
Loading historical data...
Loading historical data...
Loading historical data...
Loading historical data...
Loading historical data...
Loading historical data...
Loading historical data...

Documentation

Showing up to 5 results
|